Location: ???????
(55.3754°N, 39.3545°E)
Time: 15:51:27
(UTC+00:00)

Terra - Pass Details

Date: 14 April 2026
Orbit: 688 x 691 km, 97.9° (Epoch: 17 May)

Event Time Altitude Azimuth Distance (km) Brightness Sun altitude
Rises 19:14:55 0° 220° (SW) 3,055 5.0 -19.7°
Reaches altitude 10° 19:18:22 10° 247° (WSW) 2,144 4.4 -20.0°
Maximum altitude 19:20:37 13° 276° (W) 1,930 4.6 -20.2°
Drops below altitude 10° 19:22:52 10° 305° (NW) 2,152 5.3 -20.3°
Sets 19:26:22 0° 333° (NNW) 3,074 6.7 -20.6°
